TimeEST,TemperatureF,Dew PointF,Humidity,Sea Level PressureIn,VisibilityMPH,Wind Direction,Wind SpeedMPH,Gust SpeedMPH,PrecipitationIn,Events,Conditions,WindDirDegrees,DateUTC
12:51 AM,19.0,7.2,60,30.72,10.0,Calm,Calm,-,N/A,,Clear,0,2014-02-25 05:51:00
1:51 AM,16.2,6.1,65,30.72,10.0,Calm,Calm,-,N/A,,Clear,0,2014-02-25 06:51:00
2:51 AM,16.2,7.2,68,30.71,10.0,Calm,Calm,-,N/A,,Partly Cloudy,0,2014-02-25 07:51:00
3:51 AM,15.1,7.2,71,30.72,10.0,Calm,Calm,-,N/A,,Overcast,0,2014-02-25 08:51:00
4:51 AM,13.1,6.1,74,30.73,10.0,Calm,Calm,-,N/A,,Clear,0,2014-02-25 09:51:00
5:51 AM,12.0,6.1,77,30.74,10.0,Calm,Calm,-,N/A,,Clear,0,2014-02-25 10:51:00
6:51 AM,13.1,6.1,74,30.73,10.0,Calm,Calm,-,N/A,,Clear,0,2014-02-25 11:51:00
7:51 AM,16.2,6.1,65,30.75,10.0,Calm,Calm,-,N/A,,Clear,0,2014-02-25 12:51:00
8:51 AM,21.0,1.0,42,30.74,10.0,NW,10.4,-,N/A,,Clear,310,2014-02-25 13:51:00
9:51 AM,23.0,1.0,39,30.72,10.0,WNW,10.4,-,N/A,,Clear,300,2014-02-25 14:51:00
10:51 AM,25.2,0.1,34,30.70,10.0,NW,20.7,28.8,N/A,,Clear,310,2014-02-25 15:51:00
11:51 AM,26.1,0.1,33,30.69,10.0,WNW,18.4,24.2,N/A,,Partly Cloudy,300,2014-02-25 16:51:00
12:51 PM,27.1,3.0,36,30.66,10.0,West,16.1,26.5,N/A,,Mostly Cloudy,280,2014-02-25 17:51:00
1:51 PM,27.1,3.0,36,30.65,10.0,WNW,19.6,25.3,N/A,,Mostly Cloudy,300,2014-02-25 18:51:00
2:51 PM,26.1,3.0,37,30.65,10.0,NW,17.3,20.7,N/A,,Scattered Clouds,310,2014-02-25 19:51:00
3:51 PM,25.2,4.1,41,30.65,10.0,WNW,8.1,23.0,N/A,,Mostly Cloudy,290,2014-02-25 20:51:00
4:51 PM,24.1,3.0,40,30.66,10.0,NW,11.5,21.9,N/A,,Scattered Clouds,310,2014-02-25 21:51:00
5:51 PM,23.0,3.0,42,30.67,10.0,WNW,9.2,-,N/A,,Clear,300,2014-02-25 22:51:00
6:51 PM,22.1,3.0,44,30.69,10.0,WNW,5.8,-,N/A,,Clear,300,2014-02-25 23:51:00
7:51 PM,21.0,3.0,46,30.70,10.0,West,6.9,-,N/A,,Clear,270,2014-02-26 00:51:00
8:51 PM,18.1,5.0,57,30.70,10.0,Calm,Calm,-,N/A,,Clear,0,2014-02-26 01:51:00
9:51 PM,18.1,4.1,54,30.71,10.0,Calm,Calm,-,N/A,,Clear,0,2014-02-26 02:51:00
10:51 PM,18.1,4.1,54,30.72,10.0,Variable,6.9,-,N/A,,Clear,0,2014-02-26 03:51:00
11:51 PM,17.1,5.0,59,30.71,10.0,Calm,Calm,-,N/A,,Clear,0,2014-02-26 04:51:00